Home   Weather   38°05'N, 84°30'W   Past weeks
Flag for USA

Past Weather in 38°05'N, 84°30'W, USA — Yesterday and Last 2 Weeks

Now
70 °F

Clear.


Feels Like: 74 °F
Forecast: 86 / 63 °F
Wind: 7 mph from South

Location: Blue Grass Airport

Current Time: May 26, 2019 at 3:52:01 am

Latest Report: May 26, 2019 at 2:54 am


Visibility: 10 mi

Pressure: 30.06 "Hg

Humidity: 71%

Dew Point: 60 °F

Location of 38°05'N, 84°30'WLocation

Past Weather in 38°05'N, 84°30'W — Graph

°F

38°05'N, 84°30'W Temperature Yesterday

Maximum temperature yesterday: 90 °F (at 2:54 pm)
Minimum temperature yesterday: 71 °F (at 2:54 am)
Average temperature yesterday: 80 °F

High & Low Weather Summary for the Past Weeks

 TemperatureHumidityPressure
High90 °F (May 25, 2:54 pm)93% (May 12, 8:22 am)30.21 "Hg (May 12, 8:22 am)
Low46 °F (May 15, 4:54 am)36% (May 14, 5:54 pm)29.67 "Hg (May 12, 3:54 am)
Average67 °F67%29.96 "Hg
* Reported May 11 1:54 am — May 26 1:54 am, 38°05'N, 84°30'W. Weather by CustomWeather, © 2019

Note: Actual official high and low records may vary slightly from our data, if they occured in-between our weather recording intervals... More about our weather records

Advertising

38°05'N, 84°30'W Weather History for the Previous 24 Hours

Scroll right to see more
 ConditionsComfort  
Time TempWeatherWind HumidityBarometerVisibility
1:54 am
Sun, May 26
70 °FClear.7 mph71%30.06 "Hg10 mi
12:54 am72 °FClear.5 mph66%30.06 "Hg10 mi
11:54 pm
Sat, May 25
73 °FClear.6 mph66%30.07 "Hg10 mi
10:54 pm74 °FClear.7 mph62%30.06 "Hg10 mi
9:54 pm75 °FClear.7 mph60%30.06 "Hg10 mi
8:54 pm78 °FClear.6 mph54%30.06 "Hg10 mi
7:54 pm83 °FSunny.8 mph48%30.06 "Hg10 mi
6:54 pm86 °FSunny.12 mph40%30.06 "Hg10 mi
5:54 pm88 °FSunny.14 mph38%30.05 "Hg10 mi
4:54 pm88 °FSunny.10 mph39%30.05 "Hg10 mi
3:54 pm86 °FScattered clouds.16 mph40%30.05 "Hg10 mi
2:54 pm90 °FPassing clouds.17 mph38%30.05 "Hg10 mi
1:54 pm88 °FScattered clouds.17 mph45%30.07 "Hg10 mi
12:54 pm88 °FPassing clouds.17 mph45%30.06 "Hg10 mi
11:54 am85 °FScattered clouds.14 mph51%30.08 "Hg10 mi
10:54 am84 °FSunny.10 mph57%30.09 "Hg10 mi
9:54 am81 °FSunny.10 mph62%30.11 "Hg10 mi
8:54 am77 °FScattered clouds.8 mph71%30.10 "Hg10 mi
7:54 am75 °FOvercast.8 mph74%30.08 "Hg10 mi
6:54 am75 °FMostly cloudy.9 mph71%30.05 "Hg10 mi
5:54 am74 °FPassing clouds.10 mph74%30.03 "Hg10 mi
4:54 am72 °FClear.7 mph76%30.04 "Hg10 mi
3:54 am72 °FClear.8 mph76%30.04 "Hg10 mi
Weather by CustomWeather, © 2019

See weather overview